Flag for Norway Weather past 2 weeks in Vadsø, Norway

Now
-4 °F

Scattered clouds.


Feels Like: -19 °F
Forecast: 0 / 16 °F
Wind: 8 mph from South

Location: Kirkenes Lufthavn

Current Time: Dec 28, 2014 at 5:38:17 AM

Latest Report: Dec 28, 2014 at 4:50 AM


Visibility: N/A

Pressure: 30.01 "Hg

Humidity: 84%

Dew point: -8 °F

Location of VadsøLocation

Historic Weather in Vadsø — Graph

°F

Vadsø temperature yesterday

Maximum temperature yesterday: 0 °F (at 12:20 AM)
Minimum temperature yesterday: -8 °F (at 12:50 PM)
Average temperature yesterday: -4 °F

Past Weeks' High & Low Weather Summary

 TemperatureHumidityPressure
High36 °F (Dec 15, 9:50 PM)100% (Dec 13, 6:20 AM)30.01 "Hg (Dec 13, 6:20 AM)
Low-8 °F (Dec 23, 6:20 PM)59% (Dec 21, 6:50 PM)29.06 "Hg (Dec 20, 3:50 AM)
Average15 °F87%29.35 "Hg
* Reported Dec 13 3:20 AM — Dec 28 3:50 AM, Vadsø, Weather by CustomWeather, © 2014

Note: Actual official high and low records may vary slightly from our data, if they occured in-between our weather recording intervals... More about our weather records

Advertising

Vadsø weather history for previous 24 hours

 ConditionsComfort  
Time TempWeatherWind HumidityBarometerVisibility
3:50 AM
Dec 28
-4 °FFrigid.7 mph84%30.01 "HgN/A
3:20 AM-2 °FPassing clouds.9 mph84%30.01 "HgN/A
2:50 AM-2 °FPassing clouds.8 mph84%30.01 "HgN/A
2:20 AM-2 °FLight snow. Passing clouds.8 mph84%29.98 "HgN/A
1:50 AM-2 °FFrigid.7 mph84%29.98 "HgN/A
1:20 AM-2 °FPassing clouds.7 mph84%29.98 "HgN/A
12:50 AM-2 °FClear.9 mph84%29.98 "Hg10 mi
12:20 AM0 °FClear.8 mph84%29.98 "Hg10 mi
11:50 PM
Dec 27
0 °FClear.8 mph84%29.98 "Hg10 mi
11:20 PM0 °FClear.9 mph84%29.98 "Hg10 mi
10:50 PM0 °FLow clouds.9 mph84%29.98 "HgN/A
10:20 PM0 °FLow clouds.9 mph84%29.98 "HgN/A
9:50 PM0 °FLow clouds.7 mph84%29.95 "HgN/A
9:20 PM0 °FLow clouds.8 mph84%29.95 "HgN/A
8:50 PM-2 °FLow clouds.9 mph84%29.95 "HgN/A
8:20 PM-2 °FLow clouds.10 mph84%29.95 "HgN/A
7:50 PM-2 °FMostly cloudy.9 mph84%29.95 "HgN/A
7:20 PM-2 °FMostly cloudy.9 mph84%29.95 "HgN/A
6:50 PM-4 °FMostly cloudy.9 mph84%29.92 "HgN/A
6:20 PM-4 °FLow clouds.10 mph84%29.92 "HgN/A
5:50 PM-4 °FLow clouds.9 mph84%29.92 "HgN/A
5:20 PM-4 °FPartly cloudy.8 mph77%29.92 "HgN/A
4:50 PM-4 °FBroken clouds.8 mph77%29.92 "HgN/A
4:20 PM-6 °FPartly sunny.9 mph84%29.92 "HgN/A
3:50 PM-6 °FBroken clouds.9 mph84%29.92 "HgN/A
3:20 PM-6 °FBroken clouds.8 mph77%29.89 "HgN/A
2:50 PM-8 °FSnow flurries. Low clouds.9 mph84%29.89 "HgN/A
2:20 PM-8 °FScattered clouds.8 mph84%29.89 "HgN/A
1:50 PM-8 °FScattered clouds.9 mph84%29.89 "HgN/A
1:20 PM-6 °FSnow flurries. Partly sunny.8 mph77%29.89 "HgN/A
12:50 PM-8 °FSnow flurries. Partly sunny.10 mph84%29.89 "HgN/A
12:20 PM-6 °FScattered clouds.9 mph77%29.89 "HgN/A
11:50 AM-6 °FPassing clouds.9 mph77%29.86 "HgN/A
11:20 AM-6 °FScattered clouds.9 mph84%29.86 "HgN/A
10:50 AM-6 °FScattered clouds.8 mph84%29.86 "HgN/A
10:20 AM-6 °FScattered clouds.9 mph84%29.86 "HgN/A
9:50 AM-6 °FPartly sunny.9 mph84%29.86 "HgN/A
9:20 AM-6 °FScattered clouds.10 mph84%29.83 "HgN/A
8:50 AM-6 °FPassing clouds.7 mph84%29.83 "HgN/A
8:20 AM-6 °FPassing clouds.8 mph84%29.83 "HgN/A
7:50 AM-4 °FScattered clouds.8 mph77%29.80 "Hg5 mi
7:20 AM-4 °FScattered clouds.8 mph84%29.80 "Hg4 mi
6:50 AM-4 °FPartly sunny.8 mph84%29.80 "Hg4 mi
6:20 AM-4 °FPartly sunny.8 mph84%29.80 "Hg4 mi
5:50 AM-4 °FFrigid.8 mph84%29.77 "Hg4 mi
5:20 AM-4 °FScattered clouds.8 mph84%29.77 "Hg4 mi
Weather by CustomWeather, © 2014

See weather overviewHow to use our weather pages